Theta_e
343 342 341 341 338 338 338 340 342 345 346 348 349 350 350 352 355 356 356 356 357 356 355 355 356 356 357 356 357 356 356 353 353 350 348 348 345 343 344 340 338 338
343 343 345 343 341 340 338 341 341 344 346 348 349 350 350 352 354 357 356 356 357 356 355 354 355 355 355 355 355 355 354 353 352 355 350 348 347 345 345 342 343 342
342 343 343 342 341 338 336 340 341 343 346 348 350 351 351 354 354 356 357 356 356 356 355 353 353 353 354 354 354 355 355 352 352 354 352 349 348 348 347 347 345 344
342 343 343 343 343 340 337 338 340 344 346 347 349 351 352 354 355 355 356 361 356 356 356 354 353 353 353 353 353 354 355 354 353 353 353 350 351 349 348 346 349 348
343 343 343 343 344 342 338 337 338 342 346 347 349 351 353 352 354 354 355 357 356 355 355 355 353 353 353 352 352 353 354 353 352 352 352 351 351 351 350 347 346 347
345 344 344 343 343 343 339 337 338 339 345 348 349 351 352 352 353 354 354 355 357 356 355 355 355 354 353 352 352 352 353 353 353 352 351 351 351 353 354 350 347 347
345 344 344 344 343 343 342 340 338 340 341 348 350 350 352 352 352 353 353 355 356 356 355 355 355 354 354 353 352 351 351 353 352 352 351 351 351 351 352 350 350 349
345 345 345 344 343 343 344 343 341 340 339 343 348 350 352 352 352 353 353 353 355 355 355 355 355 354 354 353 353 351 350 353 352 352 351 351 350 350 351 353 351 349
346 346 345 344 343 343 343 344 345 343 341 339 343 348 351 352 352 352 352 352 353 354 355 354 354 354 354 353 353 352 351 352 353 351 351 351 350 351 351 351 350 350
346 346 346 345 344 344 343 343 344 345 346 341 340 342 347 351 351 351 351 351 351 352 353 354 354 354 354 354 353 353 353 352 352 352 351 351 351 352 352 352 351 350
346 347 346 345 344 344 344 343 343 345 347 345 343 340 342 346 350 350 350 350 350 351 352 353 354 354 354 354 354 354 354 354 353 352 352 351 351 351 357 352 352 351
346 346 346 346 345 345 344 344 343 343 345 347 347 344 342 342 345 348 350 349 350 350 352 353 354 354 354 354 354 354 354 354 354 353 353 352 352 351 351 352 353 352
347 347 347 347 347 346 346 345 344 343 343 345 348 347 345 343 343 345 348 349 349 350 351 352 353 354 354 354 355 355 354 354 354 354 353 353 353 353 352 352 352 352
347 348 348 347 347 347 346 345 345 344 343 343 346 348 348 346 345 344 345 348 348 349 350 352 352 353 354 354 355 355 355 354 354 354 354 353 353 354 354 353 353 352
348 348 348 348 348 347 346 346 345 344 344 343 343 345 348 348 348 346 344 345 348 349 349 351 352 353 354 354 354 354 355 354 354 354 354 353 353 353 354 355 355 354
349 349 349 348 348 347 346 346 346 345 344 343 342 342 344 347 348 348 346 344 345 348 349 350 351 352 351 343 345 354 354 355 355 354 354 353 353 352 352 353 355 355
349 349 349 348 348 347 347 347 346 345 344 343 343 342 342 344 347 346 346 346 345 346 348 350 351 351 341 334 335 340 352 354 354 353 354 354 353 352 352 352 353 354
351 350 350 349 348 348 347 347 347 346 345 344 343 342 343 343 344 345 346 346 346 345 346 349 350 344 334 332 333 333 340 355 354 353 353 353 353 353 353 353 352 353
352 351 351 350 350 349 349 348 347 346 345 345 344 344 344 343 343 344 345 346 345 344 345 347 349 340 332 330 331 331 332 344 354 353 352 353 353 353 353 352 352 352
353 352 351 351 351 351 350 349 348 347 347 346 346 346 344 344 344 343 344 345 345 345 345 346 347 340 331 328 327 328 330 335 352 353 353 353 353 353 353 353 352 352
353 353 352 352 352 352 351 350 349 348 348 347 347 346 345 344 344 344 344 345 345 346 345 345 347 335 328 326 324 324 326 331 349 353 353 352 353 353 353 353 353 353
354 354 353 353 353 352 351 350 350 349 348 348 348 347 347 347 347 346 345 345 346 346 346 345 347 331 326 324 323 323 325 338 345 349 351 352 352 352 352 353 353 353
356 355 354 354 354 353 352 352 351 350 350 350 349 348 347 347 347 347 347 346 346 346 346 346 347 336 324 321 321 321 324 340 344 347 349 350 351 351 352 352 353 353
357 356 355 355 354 353 353 353 353 353 352 352 349 348 348 348 348 348 348 348 347 346 346 346 347 339 323 319 319 319 329 341 344 345 347 349 350 351 351 352 353 361
357 357 357 356 355 355 355 354 353 353 353 353 352 351 350 349 349 348 348 348 348 348 350 347 347 341 323 319 318 317 327 342 345 345 345 346 348 349 350 351 350 357
353 356 357 357 356 356 356 355 355 355 354 353 352 352 350 350 350 349 348 348 348 348 348 348 348 348 340 318 317 315 320 342 345 345 345 345 347 347 348 348 349 350
Wind_Speed
9 8 9 8 8 7 7 7 7 8 7 7 7 7 8 7 5 6 6 6 6 6 6 6 5 5 5 4 4 4 4 4 4 3 4 3 3 3 3 3 2 3
11 10 8 7 6 6 6 7 8 8 8 8 7 6 6 5 5 6 6 6 6 6 6 6 5 5 4 4 4 4 3 3 4 2 4 4 4 3 3 3 3 1
10 9 10 10 10 9 9 7 7 8 8 8 6 6 6 5 6 5 6 6 6 6 5 5 5 4 4 4 4 4 5 4 4 4 4 5 4 3 3 3 2 3
12 11 11 11 9 9 7 7 6 6 6 6 8 8 6 6 6 6 6 6 6 6 5 4 5 4 4 4 4 5 5 5 5 4 5 3 4 4 4 3 2 1
13 11 10 10 9 7 6 7 8 7 7 8 6 5 6 5 6 6 6 6 5 5 5 5 4 4 4 4 4 5 5 5 4 4 5 5 4 3 4 3 3 4
11 11 10 10 9 8 8 8 8 8 7 6 8 6 6 6 6 6 6 7 6 6 6 5 5 5 5 5 5 5 5 5 5 4 4 5 4 3 3 3 3 4
13 11 11 9 8 8 8 8 7 7 8 8 4 6 6 6 7 7 7 7 7 7 7 6 6 6 5 5 5 5 5 5 5 5 5 5 4 4 3 3 4 4
14 12 11 10 10 9 9 9 7 7 7 5 7 8 7 8 8 7 7 7 7 7 7 7 7 6 6 5 6 5 5 4 5 6 6 5 4 5 5 4 4 4
12 12 11 12 12 10 10 10 9 7 6 8 8 7 7 7 8 8 7 7 7 7 7 7 7 7 6 6 6 6 6 5 5 5 6 6 6 6 5 4 4 4
13 12 13 13 13 12 12 11 10 9 7 7 7 6 8 8 7 8 7 7 8 7 7 7 7 7 6 7 8 7 7 7 5 5 6 6 6 6 6 5 5 5
14 13 13 14 14 12 13 12 11 10 9 9 8 8 8 7 7 7 7 8 9 9 8 8 8 8 8 8 7 7 7 7 6 5 5 6 6 6 6 6 6 6
14 13 14 15 15 14 14 13 12 11 10 9 10 10 8 8 9 8 8 9 9 9 9 9 8 8 9 9 9 7 7 7 6 5 5 5 5 6 6 6 7 7
14 14 13 13 14 13 12 12 12 12 11 11 10 10 10 10 9 9 9 9 10 9 9 10 9 8 8 9 8 8 8 7 7 7 6 5 5 6 6 6 6 6
13 13 13 13 12 12 12 12 12 12 12 11 10 11 11 11 11 11 10 9 9 9 10 9 8 8 8 8 8 8 8 8 8 8 7 6 6 6 6 6 7 6
12 12 11 12 12 12 12 13 13 12 11 11 10 11 10 11 11 11 10 10 9 9 9 8 9 9 8 9 9 9 8 9 9 9 9 8 7 7 6 7 6 7
13 12 12 12 12 12 12 12 12 12 11 11 12 11 11 10 11 11 11 11 11 10 9 8 9 8 10 15 13 10 9 8 8 8 9 8 8 8 7 7 8 7
12 12 12 13 13 13 12 12 13 11 11 11 12 12 12 11 11 11 11 11 11 11 11 10 9 9 14 15 16 16 11 9 9 8 8 8 8 8 9 9 8 8
12 12 12 13 12 13 13 12 12 12 12 12 11 12 11 11 12 12 12 11 11 11 11 11 11 13 15 15 16 17 15 11 9 8 8 8 8 9 9 9 9 8
13 13 13 13 13 13 12 12 13 13 13 12 13 12 10 11 13 12 12 12 11 12 12 12 11 14 15 16 16 17 18 14 9 9 9 9 9 9 9 9 8 8
13 14 14 14 13 13 13 13 13 13 13 12 11 11 12 12 12 13 12 12 12 12 11 11 12 14 16 17 17 18 18 15 11 10 9 10 10 10 9 9 9 8
13 13 14 13 13 13 13 13 13 12 13 12 11 12 12 12 12 13 13 12 12 12 11 11 11 15 16 18 18 18 18 15 11 10 9 9 10 10 10 10 9 9
13 13 14 13 13 13 13 13 13 13 13 12 12 11 11 11 11 11 12 12 12 12 12 13 12 16 16 17 18 18 17 11 10 11 11 10 10 10 10 10 10 10
10 12 12 13 13 13 14 14 13 13 13 11 12 12 12 12 12 12 11 11 12 12 13 13 12 14 17 18 18 19 13 9 10 10 10 11 11 11 10 11 11 11
9 11 12 13 13 14 14 14 13 12 12 11 13 13 13 13 12 11 12 12 13 14 14 13 13 14 17 18 19 19 16 12 10 10 11 11 11 11 10 10 11 16
8 10 12 13 14 15 14 14 14 13 13 12 12 12 13 11 11 12 12 11 13 13 15 16 14 14 17 18 20 20 17 11 11 10 11 11 11 11 11 10 10 12
7 10 12 13 14 14 13 13 12 11 12 12 12 11 11 11 11 12 13 12 11 12 13 14 14 13 13 19 20 21 22 14 10 11 12 13 12 11 10 10 11 10
Wind_Direction
192 192 195 194 196 193 187 192 197 196 199 196 197 203 200 210 201 197 203 200 199 198 203 208 205 207 206 187 180 174 178 190 191 181 194 199 227 185 190 203 200 201
197 196 199 195 192 190 192 193 196 199 203 202 204 198 202 194 201 192 197 199 197 200 199 205 207 207 204 194 184 178 181 174 201 184 186 203 227 204 217 199 206 183
196 197 200 200 199 196 192 191 194 203 201 205 202 199 200 193 192 194 195 196 198 199 195 199 206 211 205 199 187 187 185 183 202 202 189 206 215 209 231 201 193 196
200 200 201 206 204 199 185 177 192 206 207 196 204 204 197 196 186 190 193 197 199 203 197 191 203 210 208 205 187 194 194 193 199 189 199 210 212 211 235 216 224 235
198 201 204 207 208 202 180 182 190 193 201 208 205 200 197 193 190 192 189 196 196 204 200 203 199 209 211 209 193 199 197 199 195 185 199 210 218 203 229 217 244 253
199 199 200 203 203 199 195 193 192 189 196 199 207 196 199 194 196 197 193 194 195 199 203 205 203 211 206 210 199 206 198 194 197 187 202 214 222 210 215 206 225 242
197 196 200 198 201 203 206 203 190 189 195 201 183 202 195 196 201 204 201 202 198 198 202 203 206 210 206 203 203 211 208 200 188 189 202 223 224 230 222 203 212 230
197 196 196 195 199 201 208 207 199 192 193 183 194 205 192 200 203 205 204 202 204 206 204 205 206 207 204 195 205 210 211 198 193 190 203 217 216 235 230 218 209 224
194 195 194 197 200 202 207 209 208 199 181 191 201 201 199 202 203 204 203 201 208 210 207 208 208 208 203 199 208 209 208 207 197 192 199 206 210 223 229 226 224 227
197 195 194 197 202 204 206 209 208 207 193 196 201 200 202 208 203 201 197 198 206 211 210 210 209 209 207 207 209 208 214 214 206 203 205 209 209 212 218 219 225 232
199 196 196 198 203 205 209 207 207 207 205 205 200 205 207 205 211 204 201 198 205 209 210 211 212 208 210 214 214 211 213 215 215 212 214 216 217 216 213 213 221 227
200 199 200 201 202 205 208 208 207 206 205 206 205 210 209 208 209 209 207 208 211 211 210 212 211 210 212 215 215 213 214 217 219 219 221 221 224 225 222 214 220 225
201 202 202 203 204 206 207 208 209 208 205 206 203 207 209 211 211 212 215 213 216 214 215 213 210 208 211 214 215 213 212 213 218 220 223 223 225 226 228 226 226 227
202 202 204 205 206 205 207 209 209 210 210 208 203 206 209 211 213 212 216 216 218 217 219 216 212 209 209 211 212 211 211 214 214 218 221 225 229 228 227 230 230 231
201 202 204 205 207 207 209 210 210 211 210 209 208 209 210 212 214 214 214 217 221 220 220 216 214 213 208 206 206 209 210 214 213 215 218 224 230 231 228 230 234 233
199 200 200 202 204 206 209 210 212 212 211 212 213 212 213 211 213 215 215 215 217 220 219 219 219 216 212 205 201 203 206 213 215 219 220 222 227 231 233 229 231 233
199 202 201 203 204 206 207 208 210 210 212 214 214 214 215 213 212 215 216 215 215 216 218 221 222 220 211 202 203 204 202 207 212 218 219 223 226 227 233 232 234 234
200 201 204 206 205 208 207 206 207 208 211 212 213 215 216 214 216 216 216 215 216 216 218 220 224 222 210 204 201 203 204 206 210 216 216 220 225 228 232 233 235 235
197 200 202 204 207 207 208 207 207 209 210 210 213 214 213 215 218 217 217 216 216 216 218 220 225 220 210 205 203 202 204 207 213 211 214 219 221 226 232 234 234 235
198 200 201 205 205 206 207 208 208 210 210 210 212 211 214 217 217 219 219 217 216 217 219 222 222 220 207 206 205 203 203 201 215 212 214 219 221 223 228 233 233 232
199 200 203 205 205 206 207 209 210 211 210 210 210 212 213 215 216 218 219 219 218 217 219 223 226 217 205 205 205 203 203 198 213 215 217 221 222 223 226 228 230 229
199 200 202 203 204 205 207 209 210 209 210 209 210 213 215 215 218 218 219 220 219 218 219 225 227 214 204 204 204 204 198 197 209 215 219 222 223 223 224 225 226 226
207 205 204 204 205 206 208 209 209 210 212 207 211 213 213 214 216 215 217 218 218 217 219 225 228 215 203 202 202 200 186 201 205 213 220 223 227 223 223 224 224 224
208 206 207 207 207 209 209 209 209 211 212 205 209 211 214 214 212 216 215 215 216 218 216 221 227 218 202 202 200 192 187 197 204 208 220 223 229 228 225 226 225 221
227 216 212 210 211 212 209 208 208 208 209 206 211 212 217 214 213 216 217 215 216 218 217 219 227 223 203 199 197 191 190 201 201 206 218 224 224 230 228 229 231 229
250 228 216 214 214 214 211 210 209 209 209 208 210 211 214 212 214 215 217 219 214 215 217 218 224 227 208 199 195 192 191 196 202 203 217 222 222 224 230 231 232 234